Regional Weather Roundup
Issued by NWS

Home | Current Version | Previous Version | Graphics & Text | Print | Product List | Glossary Off
Versions: 1 2 3 4 5 6 7 8 9 10 11 12 13 14 15 16 17 18 19 20 21 22 23 24 25 26 27 28 29 30 31 32 33 34 35 36 37 38 39 40 41 42 43 44 45 46 47 48 49 50

000
ASUS43 KMKX 020111
RWRWI

WISCONSIN REGIONAL WEATHER ROUNDUP
NATIONAL WEATHER SERVICE MILWAUKEE/SULLIVAN WI
800 PM CDT WED OCT 01 2014

NOTE: "FAIR" INDICATES FEW OR NO CLOUDS BELOW 12,000 FEET WITH NO
SIGNIFICANT WEATHER AND/OR OBSTRUCTIONS TO VISIBILITY.

WIZ001-002-006>008-014>016-023>028-020200-
NORTHWEST WISCONSIN

CITY           SKY/WX    TMP DP  RH WIND       PRES   REMARKS
SUPERIOR ARPT  CLOUDY    52  51  97 CALM      29.81S
ASHLAND        CLOUDY    52  51  97 CALM      29.84R
HAYWARD        CLOUDY    54  53  97 S7        29.84R FOG
SIREN          CLOUDY    53  52  97 S7        29.83R FOG
CUMBERLAND     CLOUDY    52  52 100 S6        29.84S FOG
RICE LAKE      CLOUDY    54  52  95 SE5       29.86R FOG
CHETEK         CLOUDY    54  54  99 CALM      29.84S FOG
LADYSMITH      CLOUDY    55  54  95 SE3       29.87R FOG
EAU CLAIRE     CLOUDY    56  55  97 CALM      29.83S FOG
MENOMONIE      CLOUDY    56  55  97 CALM      29.83S FOG
NEW RICHMOND   CLOUDY    55  55 100 SE3       29.83S FOG
OSCEOLA        CLOUDY    55  55 100 SE5       29.84S FOG
$$

WIZ003>005-009-010-017-018-020200-
NORTH CENTRAL WISCONSIN

CITY           SKY/WX    TMP DP  RH WIND       PRES   REMARKS
MANITOWISH WTR DRIZZLE   53  53 100 S5        29.86R
ARBOR VITAE    LGT RAIN  57  55  93 S5        29.87R
WOODRUFF       LGT RAIN  57  55  93 S5        29.87R
RHINELANDER    LGT RAIN  55  52  89 S5        29.89R
EAGLE RIVER    LGT RAIN  54  51  92 S6        29.88R
LAND O LAKES   LGT RAIN  54  51  90 S7        29.88R
PHILLIPS       CLOUDY    54  53  96 S6        29.86R
TOMAHAWK       CLOUDY    55  52  90 SE5       29.87S
MEDFORD        CLOUDY    55  53  91 SE7       29.86R
MERRILL        CLOUDY    57  54  91 SE8       29.87S
$$

WIZ029-030-035-036-043>047-020200-
CENTRAL WISCONSIN

CITY           SKY/WX    TMP DP  RH WIND       PRES   REMARKS
WAUSAU         CLOUDY    58  52  80 SE7       29.87R
MOSINEE        CLOUDY    57  55  94 SE7       29.88S
MARSHFIELD     LGT RAIN  58  54  86 SE6       29.86S
STEVENS POINT  CLOUDY    57  51  80 E7        29.89R
WAUPACA        CLOUDY    60  52  75 E12       29.90S
WAUTOMA        NOT AVBL
WISC RAPIDS    CLOUDY    60  55  83 E6        29.88S
CAMP DOUGLAS   CLOUDY    60  60 100 E6        29.85R
$$

WIZ011>013-019>022-031-037>040-048>050-020200-
NORTHEAST WISCONSIN

CITY           SKY/WX    TMP DP  RH WIND       PRES   REMARKS
ANTIGO         CLOUDY    54  52  93 SE15      29.90S
SHAWANO        CLOUDY    57  53  84 SE8       29.92S
OCONTO         CLOUDY    55  53  92 SE7       29.93S
STURGEON BAY   NOT AVBL
GREEN BAY      CLOUDY    56  51  84 SE12      29.94R
MANITOWOC      NOT AVBL
APPLETON       CLOUDY    57  50  77 SE16      29.92R
CLINTONVILLE   CLOUDY    55  52  88 SE6       29.91R
OSHKOSH        CLOUDY    58  52  80 SE10      29.91R
$$

WIZ032>034-041-042-053>061-020200-
SOUTHWEST WISCONSIN

CITY           SKY/WX    TMP DP  RH WIND       PRES   REMARKS
LA CROSSE      CLOUDY    62  57  83 NW3       29.81S
SPARTA         CLOUDY    61  55  82 CALM      29.84S
VIROQUA        CLOUDY    63  55  77 SE6       29.84R
BOSCOBEL       CLOUDY    67  59  75 NE3       29.83R
PRAIRIE DU CHI CLOUDY    67  56  68 CALM      29.82R
PLATTEVILLE    CLOUDY    68  59  71 SE8       29.86R
$$

WIZ056-057-062-063-064-067-068-020200-
SOUTH CENTRAL WISCONSIN

CITY           SKY/WX    TMP DP  RH WIND       PRES   REMARKS
REEDSBURG      CLOUDY    64  56  73 E3        29.85R
BARABOO/DELLS  CLOUDY    64  53  68 SE7       29.86S
LONE ROCK      CLOUDY    71  55  56 E7        29.84R
MINERAL POINT  CLOUDY    68  55  64 SE5       29.86R
MADISON        CLOUDY    64  53  67 SE10      29.87S
MIDDLETON      CLOUDY    65  53  65 SE9       29.87S
WATERTOWN      CLOUDY    59  53  81 SE7       29.90S
MONROE         CLOUDY    64  55  72 E8        29.86S
JANESVILLE     CLOUDY    64  54  68 E7        29.87F
$$

WIZ051-052-058>065-066-070>072-020200-
SOUTHEAST WISCONSIN

CITY           SKY/WX    TMP DP  RH WIND       PRES   REMARKS
MILWAUKEE      CLOUDY    60  55  83 SE7       29.94R
WAUKESHA       CLOUDY    57  52  82 E9        29.93S
MILWAUKEE/TIMM MOCLDY    59  52  77 SE7       29.93F
RACINE         MOCLDY    61  55  81 SE10      29.94S
BURLINGTON     CLOUDY    58  52  80 E7        29.91S
KENOSHA        NOT AVBL
FOND DU LAC    CLOUDY    57  51  80 S10       29.91S
SHEBOYGAN      CLOUDY    56  52  86 SE5       29.94R
WEST BEND      CLOUDY    55  52  88 SE6       29.94R
JUNEAU         CLOUDY    58  52  78 SE8       29.92R
$$

LSZ147-162-020200-
LAKE SUPERIOR

STATION/POSITION TIME  TEMP    WIND        PRES    WAVE
                       AIR SEA DIR/SP/G            HT/PER
                 (UTC) (F)     (DEG/KT/KT) (MB)    (FT/S)
W MID LAKE BUOY  0050   49 50   90/  6/  8 1010.1R   1
DEVILS ISLAND    0100   51     140/  5/  6 1010.4R
SAXON HARBOR     0000   53        CALM     1009.5
$$

LMZ867-665-643>646-020200-
LAKE MICHIGAN

STATION/POSITION TIME  TEMP    WIND        PRES    WAVE
                       AIR SEA DIR/SP/G            HT/PER
                 (UTC) (F)     (DEG/KT/KT) (MB)    (FT/S)
CHAMBERS ISLAND  0000   56     130/  4/  9 1013.9S
N MID LAKE BUOY  0050   56 58  170/  8/ 10 1014.6F   1/ 3
NORTHPORT PIER   0000   56     160/  8/ 10 1013.9F
KEWAUNEE LAKESHO 0000   55     160/ 15/ 17 1013.0R
SHEBOYGAN LAKESH 0100   56 57  160/ 10/ 11 1014.4R
PORT WASHINGTON  0000   59     150/  9/ 11 1014.2R
MILWAUKEE LAKESH 0000   59     140/  8/  9   N/A
S MID LAKE BUOY  0050   63 62  130/ 12/ 16 1014.1R   2/ 3
KENOSHA   LAKESH 0100   62     130/ 13/ 15 1012.9S
$$

TC  - TEMPERATURE IN CELSIUS
VSB - VISIBILITY IN STATUTE MILES
WCI - WIND CHILL INDEX
HX  - HEAT INDEX




USA.gov is the U.S. government's official web portal to all federal, state and local government web resources and services.